Hourly Data Report for August 27, 2020

TORONTO CITY
ONTARIO
Current Station Operator: ECCC - MSC

43°40'00.000" N
79°24'00.000" W
112.50 m
6158355
71508
XTO

Download Data

Hourly Data (August 2020)
Hourly Data Report for August 27, 2020
TIME
LST
Temp Definition
°C
Dew Point Definition
°C
Rel Hum Definition
%
Precip. Amount Definition
mm

Wind Dir Definition
10's deg

Wind Spd Definition
km/h
Visibility Definition
km
Stn Press Definition
kPa
Hmdx Definition


Wind Chill Definition


Weather Definition


00:00 19.2 17.5 90 0.5       99.69     LegendNANA
01:00 19.6 17.9 90 0.0       99.57     LegendNANA
02:00 19.9 18.2 90 0.0       99.48     LegendNANA
03:00 19.9 18.1 90 0.0       99.46     LegendNANA
04:00 20.2 18.4 89 0.0       99.36 27   LegendNANA
05:00 20.4 18.5 89 0.0       99.29 27   LegendNANA
06:00 20.8 18.8 88 0.0       99.26 27   LegendNANA
07:00 21.7 18.9 84 0.0       99.23 28   LegendNANA
08:00 24.1 19.7 76 0.0       99.18 31   LegendNANA
09:00 26.1 19.8 68 0.0       99.19 34   LegendNANA
10:00 28.0 19.5 60 0.0       99.19 35   LegendNANA
11:00 28.3 19.0 57 0.0       99.19 35   LegendNANA
12:00 28.7 18.4 54 0.0       99.19 35   LegendNANA
13:00 30.1 19.0 51 0.0       99.14 37   LegendNANA
14:00 30.0 17.4 47 0.0       99.11 36   LegendNANA
15:00 28.4 17.4 51 0.0       99.08 34   LegendNANA
16:00 28.0 17.6 54 0.0       99.22 34   LegendNANA
17:00 27.9 16.7 50 0.0       99.25 33   LegendNANA
18:00 27.3 14.9 47 0.0       99.29 31   LegendNANA
19:00 25.1 16.1 57 0.0       99.36 30   LegendNANA
20:00 23.3 15.9 63 0.0       99.47 28   LegendNANA
21:00 22.1 15.5 66 0.0       99.60 26   LegendNANA
22:00 21.9 15.9 69 0.0       99.65 26   LegendNANA
23:00 20.8 15.3 71 0.0       99.68 25   LegendNANA

Notes on Data Quality.

Legend

  • E = Estimated
  • M = Missing
  • NA = Not Available*
  • [empty] = Indicates an unobserved value
Date modified: